Terminal Aerodrome Forecast
Issued by NWS

Home | Current Version | Previous Version | Text Only | Print | Product List | Glossary On
Versions: 1 2 3 4 5 6 7 8 9 10 11 12 13 14 15
000
FTUS43 KGRR 101700
TAFJXN
TAF
KJXN 101740Z 1018/1118 02005KT P6SM FEW050
     FM110000 VRB03KT P6SM SKC
     FM111500 18009KT P6SM SCT040=

USA.gov is the U.S. government's official web portal to all federal, state and local government web resources and services.